FW7196 Weather Reports


time (UTC)temp
F
wind
direction
speed
knots
gust
knots
rain 1hr
in
rain 24hr
in
rain mn
in
humidity
%
barometer
mb
20260905134541 62 0 0.0 1.7 0.00 0.00 0.00 91 1011.5
20260905133042 61 92 0.0 1.7 0.00 0.00 0.00 94 1011.2
20260905131559 60 0 0.0 2.6 0.00 0.00 0.00 96 1011.2
20260905130045 59 0 0.0 0.0 0.00 0.00 0.00 97 1011.3
20260905124548 59 0 0.0 0.9 0.00 0.00 0.00 97 1011.4
20260905123053 58 0 0.0 0.0 0.00 0.00 0.00 97 1011.4
20260905121545 57 0 0.0 0.0 0.00 0.00 0.00 97 1011.2
20260905120043 56 0 0.0 0.0 0.00 0.00 0.00 97 1011.4
20260905114545 56 0 0.0 0.0 0.00 0.00 0.00 97 1011.4
20260905113044 56 0 0.0 0.0 0.00 0.00 0.00 97 1011.1
20260905111551 55 0 0.0 0.0 0.00 0.00 0.00 97 1010.9
20260905110041 55 0 0.0 0.0 0.00 0.00 0.00 97 1010.8
20260905104540 55 0 0.0 1.7 0.00 0.00 0.00 97 1010.8
20260905103045 54 0 0.0 0.0 0.00 0.00 0.00 96 1010.7
20260905101552 53 0 0.0 0.0 0.00 0.00 0.00 96 1010.5
20260905100041 53 0 0.0 0.0 0.00 0.00 0.00 96 1010.4
20260905094543 53 0 0.0 0.0 0.00 0.00 0.00 96 1010.3
20260905093044 53 0 0.0 0.0 0.00 0.00 0.00 95 1010.3
20260905091541 53 0 0.0 0.0 0.00 0.00 0.00 95 1010.3
20260905090049 53 118 0.0 1.7 0.00 0.00 0.00 95 1010.2
20260905084600 54 0 0.0 0.0 0.00 0.00 0.00 95 1010.3
20260905083041 54 0 0.0 0.0 0.00 0.00 0.00 95 1010.2
20260905081544 54 0 0.0 0.0 0.00 0.00 0.00 95 1010.2
20260905080041 54 0 0.0 0.0 0.00 0.00 0.00 95 1010.2
20260905074544 54 0 0.0 0.0 0.00 0.00 0.00 95 1010.1
20260905073043 55 0 0.0 0.0 0.00 0.00 0.00 94 1010.3
20260905071541 55 0 0.0 0.0 0.00 0.00 0.00 95 1010.4
20260905070043 55 0 0.0 0.0 0.00 0.00 0.00 95 1010.4
20260905064544 56 0 0.0 0.0 0.00 0.00 0.00 94 1010.7
20260905063049 56 0 0.0 0.0 0.00 0.00 0.00 94 1010.7
20260905061541 56 0 0.0 0.0 0.00 0.00 0.00 94 1010.7
20260905060044 56 0 0.0 0.9 0.00 0.00 0.00 94 1010.7
20260905054546 57 0 0.0 0.0 0.00 0.00 0.00 94 1010.6
20260905053050 57 0 0.0 0.0 0.00 0.00 0.00 93 1010.6
20260905051542 57 0 0.0 0.0 0.00 0.00 0.00 93 1010.6
20260905050043 58 0 0.0 1.7 0.00 0.00 0.00 93 1010.7
20260905044548 58 0 0.0 0.0 0.00 0.00 0.00 93 1010.8
20260905043047 58 0 0.0 0.0 0.00 0.00 0.00 92 1010.9
20260905041542 59 0 0.0 0.0 0.00 0.00 0.00 92 1010.8
20260905040048 59 0 0.0 0.0 0.00 0.00 0.00 91 1010.9
20260905034547 60 0 0.0 0.0 0.00 0.00 0.00 90 1010.9
20260905033042 61 0 0.0 0.0 0.00 0.00 0.00 90 1010.9
20260905031542 61 0 0.0 0.0 0.00 0.00 0.00 89 1011.0
20260905030043 62 0 0.0 0.0 0.00 0.00 0.00 88 1010.9
20260905024606 62 0 0.0 0.0 0.00 0.00 0.00 87 1011.1
20260905023045 63 0 0.0 0.0 0.00 0.00 0.00 86 1011.2
20260905021543 63 0 0.0 0.0 0.00 0.00 0.00 85 1011.3
20260905020051 63 0 0.0 0.9 0.00 0.00 0.00 85 1011.4
20260905014545 64 0 0.0 0.0 0.00 0.00 0.00 87 1011.6
20260905013051 64 0 0.0 0.9 0.00 0.00 0.00 86 1011.4
20260905011553 64 0 0.0 0.9 0.00 0.00 0.00 85 1011.5
20260905010044 64 0 0.0 1.7 0.00 0.00 0.00 86 1011.4
20260905004550 64 0 0.0 1.7 0.00 0.00 0.00 87 1011.5
20260905003042 64 0 0.0 2.6 0.00 0.00 0.00 87 1011.4
20260905001544 64 0 0.0 0.9 0.00 0.00 0.00 85 1011.4
20260905000044 64 0 0.0 0.0 0.00 0.00 0.00 84 1011.1
20260904234550 65 0 0.0 1.7 0.00 0.00 0.00 83 1010.9
20260904233054 66 0 0.0 0.0 0.00 0.00 0.00 81 1010.8
20260904231540 67 0 0.0 0.9 0.00 0.00 0.00 79 1010.7
20260904230048 68 0 0.0 0.0 0.00 0.00 0.00 75 1010.6
20260904224547 68 0 0.0 1.7 0.00 0.00 0.00 74 1010.8
20260904223044 69 0 0.0 2.6 0.00 0.00 0.00 76 1010.7
20260904221541 69 0 0.0 0.9 0.00 0.00 0.00 74 1010.5
20260904220043 70 0 0.0 0.9 0.00 0.00 0.00 72 1010.7
20260904214549 71 2 0.0 2.6 0.00 0.00 0.00 70 1010.6
20260904213043 72 9 0.0 0.9 0.00 0.00 0.00 69 1010.7
20260904211544 72 0 0.0 2.6 0.00 0.00 0.00 69 1010.6
20260904210046 72 0 0.0 2.6 0.00 0.00 0.00 68 1010.6
20260904204542 73 0 0.0 0.0 0.00 0.00 0.00 65 1010.6
20260904203047 73 0 0.0 1.7 0.00 0.00 0.00 66 1010.5
20260904201544 74 330 0.9 2.6 0.00 0.00 0.00 61 1010.3
20260904200051 75 0 0.0 2.6 0.00 0.00 0.00 63 1010.3
20260904194543 75 106 0.9 7.8 0.00 0.00 0.00 59 1010.3
20260904193049 75 0 0.0 4.3 0.00 0.00 0.00 63 1010.4
20260904191543 75 140 0.9 5.2 0.00 0.00 0.00 57 1010.5
20260904190041 75 56 0.9 5.2 0.00 0.00 0.00 60 1010.6
20260904184558 75 24 0.0 2.6 0.00 0.00 0.00 63 1010.6
20260904183040 75 309 0.9 2.6 0.00 0.00 0.00 62 1010.6
20260904181543 74 336 0.0 4.3 0.00 0.00 0.00 61 1010.6
20260904180056 76 0 1.7 6.1 0.00 0.00 0.00 58 1010.8
20260904174542 75 336 0.9 7.0 0.00 0.00 0.00 60 1010.6
20260904173051 74 206 0.0 1.7 0.00 0.00 0.00 69 1010.6
20260904171544 73 0 0.0 3.5 0.00 0.00 0.00 68 1010.7
20260904170042 73 54 0.0 2.6 0.00 0.00 0.00 69 1010.9
20260904164542 74 41 0.9 6.1 0.00 0.00 0.00 73 1010.9
20260904163054 73 0 0.0 2.6 0.00 0.00 0.00 73 1010.9
20260904161543 72 268 0.0 2.6 0.00 0.00 0.00 77 1011.0
20260904160043 73 327 0.9 4.3 0.00 0.00 0.00 71 1011.2
20260904154544 73 0 0.0 2.6 0.00 0.00 0.00 72 1011.4
20260904153052 73 166 0.9 2.6 0.00 0.00 0.00 74 1011.4
20260904151542 72 0 0.0 3.5 0.00 0.00 0.00 78 1011.5
20260904150045 71 72 0.0 2.6 0.00 0.00 0.00 78 1011.5
20260904144545 69 0 0.0 1.7 0.00 0.00 0.00 83 1011.5
20260904143041 67 0 0.0 0.9 0.00 0.00 0.00 90 1011.6
20260904141642 65 134 0.0 0.9 0.00 0.00 0.00 92 1011.6
20260904141604 65 195 0.0 1.7 0.00 0.00 0.00 93 1011.6
20260904141124 65 53 0.0 0.0 0.00 0.00 0.00 94 1011.6
20260904140045 64 0 0.0 3.5 0.00 0.00 0.00 96 1011.6